Back to catalog

PEXT

AliveScienceSSO
NORAD 64874·PAYLOAD·🇺🇸 United States

Launched Jul 23, 2025 from Vandenberg Space Force Base

Loading…

Next Passes (next 24 hours)

TLE

FreshSource: Space-Track

Epoch: Sep 14, 2026, 14:20 UTC

1 64874U 25154F   26257.59769442  .00002361  00000-0  10987-3 0  9994
2 64874  97.3874 320.9139 0002379   9.4937 350.6344 15.20900363 63439

Track PEXT in real time with AllMySat

Download on the App Store